map of NVT home
NVT - Airport
Location
City:  Navegantes, Santa Catarina, Brazil
Name:Ministro Victor Konder International Airport
ICAO:SBNF
IATA:NVT

Details
Type:Airport (Aerodrome, Airfield)
Use:Public/Civil, International (customs port of entry)
Latitude:26°52'43"S (-26.878610)
Longitude:48°39'03"W (-48.650832)
Elevation:16 ft (5 m)
Variation:19.62°W (WMM2015v2 magnetic declination)
-0.12° annual change
Runways:1
Longest:5581 × 148 ft (1701 × 45 m), paved

Time
Time Zone:UTC-3 (DST-2)
Local Time:

Weather
METAR:SBNF 041400Z 15009KT 9999 FEW030 BKN080 25/17 Q1019
TAF:SBNF 040830Z 0412/0512 26006KT 9999 BKN040 TX25/0416Z TN21/0508Z
BECMG 0412/0414 16010KT SCT040
BECMG 0500/0502 25005KT SCT020
RMK PER

Related Locations
Nearby:
Farthest:KTD: 12366 mi / 19900 km
Kitadaito [Kitadaito Airport], Kitadaito Island, 47, JP

Find:

   beyond  
but within

Other Information
Maps:
NOTAMs:
Links:
Sources:

  
  • flag of Brazil
  • flag of Santa Catarina
  

Sectional Chart

Flight Planning
at skyvector.com

Satellite Image

Google Maps Satellite view

 

Copyright © 2004-2019 Karl L. Swartz. All rights reserved.
The Great Circle Mapper name and logo are trademarks of the Great Circle Mapper.
All other trademarks mentioned herein belong to their respective owners.
Please see credits for attibutions and further copyright information.

  Follow gcmap on Facebook Follow gcmap on Twitter GCmap on LinkedIn

hCard Microformat

Geo Microformat